User: anonymous   Login
Location: Caltech
(34.1382°N, 118.1253°W)
Time: 23:58:23
(UTC-08:00)
Language:

COSMOS 2428 - Orbit

View from above orbital plane
View from above orbital plane
View from above satellite
View from above satellite

Ground track
Ground track

The orbit data is extracted from the following two-line orbital elements,

1 31792U 07029A   14354.09103978  .00000356  00000-0  21843-3 0  2868
2 31792 070.9775 160.1204 0011751 220.9979 255.5774 14.12499154385568
Epoch (UTC): 20 December 2014 02:11:05
Eccentricity: 0.0011751
inclination: 70.9775°
perigee height: 842 km
apogee height: 859 km
right ascension of ascending node: 160.1204°
argument of perigee: 220.9979°
revolutions per day: 14.12499154
mean anomaly at epoch: 255.5774°
orbit number at epoch: 38556

The dashed part of the orbit path shows where the satellite is in the earth's shadow,  

DLR